Temp
1 1 1 1 1 1 1 2 2 3 3 4 4 4 4 4 4 3 3 3 3 1 4 5 5 5 6 5 5 5 4 6 5 6 6 7 5 9 10 11 11 10 9 9 8 9 10 11 14 12 12 12 12 12
1 1 1 1 1 1 1 2 3 3 4 4 4 5 5 5 4 3 3 2 3 2 3 5 6 6 6 6 4 5 6 5 6 6 6 6 5 5 8 8 10 10 9 9 10 10 10 11 10 11 11 10 10 10
1 1 0 1 1 1 2 2 3 4 4 5 5 5 5 5 4 4 3 3 2 2 3 3 4 6 7 7 8 4 5 6 6 5 6 7 7 7 7 8 8 7 8 10 10 9 9 9 9 9 9 8 8 8
1 1 1 1 1 2 2 3 4 4 5 5 5 5 5 5 5 4 3 2 2 3 2 4 6 5 6 7 7 7 7 7 7 5 5 6 6 8 8 9 8 8 9 7 9 8 8 7 7 7 8 7 6 5
1 1 1 1 1 2 3 3 4 4 4 4 5 5 5 5 5 4 4 2 2 4 2 3 6 7 8 7 6 7 6 6 4 5 5 6 6 7 8 7 6 5 5 7 7 5 6 5 5 5 5 5 4 3
0 0 1 1 2 3 3 3 3 4 4 4 4 4 4 5 5 3 1 2 2 2 4 4 5 6 7 7 5 5 6 4 4 5 6 7 7 6 7 7 4 4 3 3 4 3 4 4 5 5 6 4 3 1
0 1 1 2 2 3 3 4 4 3 4 4 4 4 4 5 4 4 3 3 2 2 3 3 4 5 6 5 4 4 5 5 6 6 6 7 7 6 5 4 3 3 2 2 1 4 4 4 3 3 4 3 1 -0
0 1 2 2 3 3 3 3 4 4 4 4 5 4 5 4 3 3 5 3 3 2 3 2 2 4 6 4 5 4 4 5 6 6 6 7 6 5 2 2 2 2 2 2 2 1 1 2 2 1 1 1 -0 -1
1 2 2 3 3 4 4 4 5 4 5 5 5 4 4 3 3 4 5 3 3 3 4 3 1 3 5 4 5 5 5 5 5 5 5 6 3 2 1 0 0 0 0 1 1 0 0 0 -0 -1 -1 -2 -2 -3
2 2 3 4 4 5 5 5 5 4 4 4 3 2 2 3 3 3 3 3 3 4 3 4 3 5 4 5 5 5 4 6 6 5 4 2 1 -1 -1 -1 -1 -1 -1 -1 -1 -1 -1 -1 -2 -3 -4 -4 -4 -5
2 3 4 4 5 4 4 4 3 3 3 4 3 4 4 3 4 3 3 4 4 4 3 3 4 5 3 5 5 3 5 5 6 6 6 3 1 -1 -2 -2 -3 -3 -3 -3 -4 -4 -4 -3 -4 -4 -5 -6 -6 -7
3 3 3 3 3 3 3 3 4 5 4 4 4 3 3 4 4 4 4 4 4 4 4 4 5 5 4 4 5 5 5 5 6 5 2 -1 -1 -2 -2 -3 -4 -4 -4 -5 -5 -5 -5 -6 -6 -6 -6 -7 -8 -9
3 3 3 3 3 3 3 3 4 4 5 5 3 2 4 2 4 1 4 5 5 4 4 5 4 4 3 5 4 4 5 4 4 1 -1 -2 -2 -3 -3 -4 -5 -5 -6 -6 -7 -7 -7 -7 -8 -7 -8 -9 -10 -11
3 3 3 4 4 3 4 4 5 6 6 3 2 -2 -1 -3 -1 -1 2 2 2 3 4 2 4 4 4 4 4 5 3 3 4 -3 -3 -4 -4 -5 -5 -5 -6 -8 -9 -9 -10 -10 -11 -11 -11 -11 -11 -11 -11 -12
3 3 3 3 4 3 5 5 6 5 2 0 -0 -2 -3 -1 -1 1 1 2 1 2 3 4 3 3 2 2 3 3 4 -3 -3 -4 -4 -5 -6 -6 -6 -7 -9 -10 -11 -11 -10 -11 -11 -11 -11 -11 -11 -11 -11 -11
3 3 3 3 3 4 5 3 3 3 -0 -1 -1 -0 -1 -2 -2 -0 0 0 1 1 2 2 1 1 1 2 0 -1 0 -4 -6 -8 -6 -7 -8 -8 -8 -8 -9 -9 -9 -9 -10 -10 -11 -11 -11 -12 -11 -12 -12 -12
3 3 3 3 4 5 6 4 3 -0 -1 -1 -3 -4 -5 -5 -4 -1 -1 -1 -1 1 -1 -0 -1 0 1 -2 -4 -4 -6 -7 -5 -5 -7 -9 -9 -10 -9 -7 -8 -8 -8 -9 -9 -10 -10 -11 -11 -11 -12 -12 -12 -12
3 4 4 4 5 5 4 3 -1 -1 -1 -3 -3 -3 -7 -6 -4 -4 -2 -3 -2 -1 -1 -0 -1 -3 -6 -4 -6 -6 -5 -6 -7 -8 -8 -9 -8 -8 -7 -8 -7 -7 -8 -8 -9 -9 -10 -10 -10 -11 -11 -11 -12 -12
3 3 4 4 5 4 1 1 0 -2 -3 -4 -4 -4 -4 -5 -4 -4 -4 -4 -3 -2 -1 -3 -3 -4 -5 -6 -6 -9 -11 -10 -7 -10 -12 -9 -7 -7 -7 -7 -7 -7 -7 -8 -8 -9 -9 -9 -9 -10 -10 -10 -11 -12
4 4 4 5 5 2 2 0 1 -1 -2 -3 -2 -3 -3 -4 -4 -7 -4 -3 -2 -3 -5 -5 -6 -7 -6 -9 -11 -8 -9 -8 -8 -9 -11 -11 -7 -7 -7 -7 -7 -7 -8 -8 -9 -9 -9 -10 -10 -10 -10 -11 -12 -12
4 4 4 4 4 3 0 -0 -1 -1 -1 -2 -1 -1 -3 -3 -5 -6 -5 -3 -5 -5 -7 -8 -8 -7 -7 -8 -6 -6 -6 -6 -9 -9 -10 -9 -8 -7 -7 -7 -7 -8 -8 -9 -10 -11 -10 -11 -11 -11 -11 -12 -13 -13
4 4 4 3 1 0 -0 -0 -1 -2 -1 -1 -1 -1 -5 -7 -8 -7 -4 -6 -6 -7 -8 -8 -8 -7 -7 -9 -7 -6 -7 -7 -6 -6 -6 -7 -10 -10 -9 -8 -8 -9 -9 -10 -11 -11 -11 -11 -12 -12 -12 -13 -13 -13
4 4 3 1 -3 -3 -1 1 -1 0 -2 -2 -2 -2 -4 -6 -4 -3 -7 -5 -7 -8 -7 -7 -7 -6 -7 -6 -6 -6 -6 -6 -8 -8 -7 -8 -9 -9 -9 -9 -9 -10 -11 -11 -11 -11 -12 -12 -12 -12 -13 -13 -13 -13
3 -1 -2 -3 -3 -3 -4 -2 0 -0 -2 -1 -2 -3 -3 -4 -3 -6 -6 -8 -8 -7 -7 -7 -6 -6 -6 -6 -8 -7 -7 -7 -8 -8 -8 -8 -10 -10 -9 -10 -10 -10 -10 -11 -11 -12 -12 -12 -12 -13 -13 -13 -13 -13
-1 -3 -3 -4 -4 -4 -5 -5 -3 -2 -4 -4 -4 -5 -5 -4 -7 -8 -9 -8 -9 -10 -9 -6 -6 -6 -8 -11 -9 -9 -7 -7 -9 -11 -9 -8 -9 -10 -11 -11 -11 -12 -11 -11 -12 -12 -12 -13 -13 -13 -13 -13 -14 -14
-5 -6 -3 -5 -5 -3 -4 -4 -5 -4 -5 -5 -5 -5 -6 -8 -9 -8 -6 -9 -12 -11 -13 -9 -7 -8 -8 -8 -10 -9 -9 -8 -8 -11 -12 -10 -10 -10 -12 -13 -13 -13 -13 -12 -12 -12 -13 -13 -13 -13 -14 -14 -14 -14
-7 -7 -3 -2 -1 -1 -3 -3 -2 -4 -6 -6 -6 -7 -10 -11 -11 -7 -8 -9 -9 -6 -5 -5 -6 -8 -10 -11 -10 -9 -8 -8 -9 -11 -12 -12 -12 -12 -11 -12 -13 -14 -14 -14 -13 -13 -13 -13 -14 -14 -14 -14 -14 -15
-5 -6 -6 -7 -7 -6 -7 -7 -7 -7 -7 -5 -7 -10 -11 -10 -8 -7 -8 -8 -7 -6 -7 -7 -7 -8 -9 -10 -10 -10 -11 -11 -11 -12 -13 -13 -14 -14 -14 -14 -14 -14 -14 -15 -15 -15 -14 -14 -15 -15 -15 -15 -15 -16
-10 -8 -7 -9 -9 -9 -8 -8 -9 -8 -8 -9 -12 -12 -10 -8 -9 -8 -10 -9 -7 -7 -10 -11 -11 -10 -11 -11 -11 -11 -12 -11 -12 -17 -19 -19 -15 -15 -15 -15 -15 -15 -15 -15 -15 -15 -15 -16 -16 -16 -16 -16 -16 -16
-8 -8 -9 -12 -12 -11 -11 -10 -12 -15 -11 -11 -9 -8 -9 -10 -9 -9 -9 -8 -9 -11 -10 -11 -11 -11 -13 -13 -13 -13 -13 -12 -12 -11 -19 -20 -14 -15 -15 -15 -15 -15 -16 -16 -16 -16 -16 -16 -16 -16 -16 -16 -16 -17
-7 -10 -12 -13 -12 -10 -12 -11 -9 -10 -15 -14 -15 -14 -13 -11 -10 -9 -9 -8 -9 -10 -10 -11 -11 -11 -11 -12 -12 -13 -15 -14 -13 -13 -13 -14 -15 -15 -15 -16 -16 -16 -16 -16 -16 -17 -17 -17 -17 -17 -17 -17 -18 -18
-13 -14 -13 -12 -11 -11 -12 -15 -15 -14 -15 -16 -16 -18 -15 -14 -13 -12 -11 -10 -9 -10 -10 -10 -11 -12 -11 -11 -12 -12 -12 -14 -14 -14 -15 -15 -15 -16 -16 -17 -17 -17 -17 -17 -17 -17 -17 -17 -17 -18 -18 -18 -18 -19
-13 -14 -15 -13 -12 -12 -11 -11 -13 -11 -15 -14 -14 -14 -13 -15 -14 -14 -11 -10 -9 -10 -10 -10 -11 -12 -12 -12 -12 -13 -14 -15 -15 -15 -16 -16 -16 -17 -17 -17 -17 -17 -18 -18 -18 -18 -18 -18 -18 -18 -19 -19 -19 -20
Height
734 734 733 733 732 731 731 730 729 728 728 728 728 730 732 736 741 746 748 753 760 763 758 756 759 758 758 762 761 758 759 753 755 753 752 748 757 735 728 718 719 723 733 733 742 735 732 709 695 702 708 704 705 707
726 725 725 725 724 723 722 721 720 720 720 721 722 724 726 729 734 740 744 748 755 759 754 752 752 753 755 757 762 760 759 757 753 752 754 751 755 751 736 733 717 722 722 724 722 721 722 716 718 714 715 712 717 718
717 717 717 716 715 714 712 711 710 712 713 715 716 718 720 723 727 733 737 743 751 756 755 752 746 747 750 750 752 760 759 753 753 756 751 747 746 741 742 732 726 722 721 715 714 722 724 723 725 723 723 726 725 726
709 709 708 707 706 704 702 702 702 704 705 707 709 712 715 718 722 727 729 735 744 750 754 741 736 739 737 744 746 748 749 751 751 754 753 752 751 735 730 727 733 728 720 726 717 723 728 732 733 732 730 735 733 737
701 700 699 697 696 694 693 693 694 695 697 699 701 704 708 712 716 722 725 729 735 741 745 740 732 729 730 733 739 744 747 750 753 755 754 748 745 737 730 733 744 745 744 731 729 738 732 740 743 741 740 743 744 746
692 691 690 687 685 684 684 683 683 684 685 687 691 695 700 705 713 714 723 726 731 735 740 738 730 725 725 729 734 739 744 748 750 753 750 745 740 742 734 735 757 755 754 751 745 744 744 745 745 745 745 751 753 751
684 682 680 677 675 674 673 671 671 670 671 674 678 685 692 699 704 709 714 715 726 736 739 740 733 725 724 729 736 739 742 744 746 748 748 742 737 738 742 753 763 761 759 755 755 748 749 750 754 754 753 755 754 751
675 673 670 667 665 663 661 659 658 657 657 661 668 677 687 694 702 708 711 713 723 734 738 742 740 731 725 732 737 737 743 744 744 744 743 739 737 746 764 767 766 766 764 763 762 762 762 760 758 759 760 760 759 758
667 664 661 658 655 652 651 651 650 649 648 649 659 673 682 691 699 704 710 718 722 728 729 732 741 737 726 732 733 737 740 742 743 741 741 738 757 764 770 772 772 771 772 771 770 770 767 765 766 767 768 767 766 765
659 656 653 651 650 649 649 649 650 650 651 655 665 675 685 691 699 709 720 722 722 720 723 723 726 725 729 727 732 737 739 736 735 736 738 753 770 776 777 777 777 777 777 775 773 775 773 772 773 774 774 773 771 770
653 651 649 648 649 651 651 652 654 656 659 663 669 675 684 693 700 709 712 714 718 718 719 719 718 719 724 722 727 734 731 731 728 728 730 753 767 779 783 783 783 782 781 780 780 781 779 777 776 777 777 778 778 778
650 650 649 650 651 654 656 658 660 662 664 667 670 682 690 693 695 701 707 713 713 713 712 715 714 715 720 719 723 727 728 729 725 729 748 772 779 783 784 786 786 786 785 785 785 784 784 783 782 782 783 784 784 785
651 652 654 656 657 658 659 661 664 667 668 672 679 687 688 698 694 714 702 703 703 708 709 710 716 719 722 721 725 726 727 735 731 753 770 778 782 785 786 788 789 789 789 790 789 789 789 789 788 788 789 791 790 790
652 656 659 660 662 662 665 666 668 671 673 681 691 713 711 726 718 718 705 706 710 708 708 714 715 718 722 725 725 725 737 734 734 781 783 783 786 789 789 791 792 795 795 794 795 795 796 795 795 795 795 795 795 796
654 658 661 663 664 667 668 668 668 671 680 693 698 718 722 715 713 710 710 710 711 710 710 712 719 722 729 735 730 733 731 777 773 783 783 787 790 791 793 794 796 797 798 798 799 799 799 799 799 800 800 800 800 800
657 660 662 664 667 670 670 672 673 677 690 701 710 711 714 719 721 716 715 715 715 714 712 717 728 736 741 737 748 761 755 777 787 791 788 790 793 794 795 795 797 798 799 800 801 801 801 802 802 803 803 803 803 803
658 661 664 667 669 669 667 671 680 693 705 713 722 723 725 728 728 723 722 721 718 718 730 728 740 744 740 759 773 773 786 786 782 785 789 791 794 796 795 797 798 799 800 801 802 803 803 804 805 805 806 806 806 806
659 663 667 670 671 672 677 682 693 706 717 723 725 728 732 731 730 729 725 723 721 724 728 736 738 754 773 769 781 779 779 782 786 789 792 793 794 796 796 798 799 800 801 802 803 804 804 805 805 806 806 807 807 808
661 665 669 671 671 675 684 693 699 715 726 729 730 730 731 733 732 730 729 726 725 726 731 743 754 761 768 771 773 782 787 788 789 794 795 795 796 797 798 799 800 801 802 803 804 804 805 805 805 805 806 806 807 808
667 669 671 672 674 678 689 700 703 713 725 731 730 733 735 737 736 737 735 733 733 739 752 762 769 769 769 774 775 778 783 786 789 794 799 797 797 798 799 800 800 801 802 803 804 805 805 806 806 806 806 807 807 808
670 672 674 675 678 683 694 703 712 718 724 730 731 732 738 738 742 745 745 742 748 759 770 773 773 772 772 773 775 779 783 785 789 790 795 797 798 798 800 801 801 802 803 804 805 806 807 808 808 809 809 809 809 810
672 674 676 679 685 693 702 705 712 717 724 729 732 733 744 753 755 752 750 755 763 769 771 773 776 776 778 780 781 782 784 786 788 791 794 796 799 801 801 802 802 803 804 806 807 808 809 809 809 810 810 811 811 812
673 675 679 684 697 707 716 710 716 718 730 733 733 736 746 750 747 749 764 765 771 772 773 775 777 778 780 783 785 787 789 790 793 795 797 799 801 802 803 803 804 804 806 808 808 809 809 810 811 811 811 811 812 812
675 682 691 700 704 716 714 716 713 719 726 731 734 742 746 748 747 759 766 773 774 774 775 777 779 782 784 787 789 791 793 794 796 798 799 800 802 804 804 805 806 807 807 808 809 810 810 811 811 811 811 812 812 812
687 704 703 714 710 719 727 730 724 726 739 737 744 748 747 743 758 766 772 772 775 776 777 779 781 783 787 790 791 793 794 795 797 800 801 802 803 805 806 807 808 808 808 808 809 810 810 811 811 812 811 812 812 812
711 715 709 717 719 716 723 730 732 733 737 743 745 742 745 756 769 770 761 768 773 774 776 778 780 785 788 789 792 794 795 797 797 800 804 803 803 804 805 806 808 809 809 809 809 809 810 811 811 811 811 811 811 811
722 723 712 709 708 707 717 719 718 728 741 744 745 750 761 780 780 763 762 762 766 770 773 776 779 783 787 791 793 795 796 798 799 802 804 804 805 805 805 805 807 809 809 809 809 808 809 810 810 810 810 810 810 810
716 718 724 727 726 725 732 735 740 743 743 738 743 762 768 768 765 759 760 764 766 770 773 777 781 784 788 792 795 796 799 800 802 804 805 807 807 807 807 808 809 810 810 809 809 809 809 809 809 809 809 809 809 809
729 725 726 738 738 741 744 747 749 747 745 746 760 768 764 758 759 761 765 766 768 771 777 782 788 789 792 796 798 800 801 802 803 807 809 810 810 810 810 810 810 810 810 810 810 810 809 809 809 809 808 808 808 808
728 727 738 750 755 756 756 751 754 751 747 747 750 756 761 765 767 767 768 771 773 777 780 784 788 790 793 796 799 802 803 803 804 804 806 808 808 809 810 810 810 810 810 810 810 810 810 809 809 808 807 807 806 806
724 732 745 754 760 757 756 753 752 752 754 759 761 767 770 771 774 776 777 778 779 782 785 788 792 794 796 798 800 802 804 804 804 804 805 806 808 809 810 810 810 810 810 810 810 809 809 809 808 807 807 806 806 805
737 746 750 756 759 757 754 761 765 769 771 774 777 775 775 779 785 783 783 783 784 786 788 791 793 796 798 800 801 802 802 804 806 807 807 808 809 810 810 810 810 810 809 809 809 809 809 808 808 807 806 805 804 803
744 747 751 754 758 760 757 758 765 769 776 779 778 777 777 783 788 786 785 785 787 788 790 793 795 797 800 801 802 803 805 806 807 808 809 810 810 810 811 810 810 810 810 809 809 809 808 808 807 806 805 804 802 801
Wind_Speed
23 23 23 25 25 25 26 27 27 26 22 21 20 19 20 24 25 32 17 27 22 2 7 4 3 1 2 1 1 3 4 2 1 1 1 2 2 4 3 4 4 6 5 4 3 4 9 14 5 4 4 11 12 11
24 23 25 26 27 27 29 29 28 25 22 18 16 17 19 23 26 32 9 27 29 2 3 5 21 24 18 9 3 2 3 2 1 2 2 2 2 2 3 3 2 4 5 3 6 4 6 10 12 13 10 12 12 11
22 24 25 26 28 29 30 29 24 21 20 19 16 16 18 20 26 32 18 26 16 4 6 9 11 18 17 17 19 4 0 3 3 2 2 1 3 2 2 2 3 3 4 1 3 8 11 12 13 14 14 12 13 13
23 24 26 26 28 29 29 24 20 21 22 21 19 18 18 18 23 29 19 27 22 3 2 4 8 14 30 19 13 18 6 3 3 2 0 1 2 2 2 2 3 5 3 4 5 9 10 11 11 9 12 12 13 14
23 25 26 29 30 29 26 24 24 24 25 25 24 22 22 21 22 26 26 31 33 7 3 3 6 15 14 21 27 22 8 3 2 0 1 2 3 3 2 3 4 6 5 3 2 6 5 4 8 9 9 10 11 10
25 25 28 29 28 25 27 27 29 30 29 28 25 24 25 23 21 13 2 19 33 10 1 2 4 3 6 16 14 9 6 3 3 2 2 3 3 1 3 3 7 8 8 10 4 7 8 10 12 13 10 9 9 12
24 25 28 28 28 28 29 31 30 30 30 29 27 26 27 25 29 5 5 12 36 16 2 2 3 3 2 7 2 2 3 2 3 2 2 2 3 4 2 3 6 7 10 10 12 3 11 13 7 11 11 11 14 16
25 26 26 27 27 28 28 28 26 24 24 25 25 28 29 30 19 9 3 13 35 9 3 2 3 3 1 3 2 2 3 2 2 2 2 2 1 2 3 6 8 8 6 12 12 11 8 8 10 10 12 9 10 9
23 24 23 24 25 18 14 13 10 8 10 17 30 32 26 10 4 8 12 35 17 5 5 4 3 3 2 2 2 2 2 2 1 2 2 1 3 4 5 7 10 11 8 6 8 9 9 8 8 9 9 8 7 8
20 19 19 9 7 5 7 11 15 19 30 42 27 6 3 10 37 29 8 5 2 2 2 3 2 3 1 2 2 3 2 2 3 4 3 3 3 8 8 9 8 9 9 7 3 8 7 5 8 8 8 7 8 8
14 12 6 9 10 12 17 23 38 38 26 6 2 3 31 35 9 2 3 3 2 2 2 3 3 3 2 3 3 2 3 3 3 2 2 2 2 4 7 9 7 7 10 9 9 8 8 7 6 7 8 9 9 10
6 9 23 27 29 30 28 23 19 10 4 7 16 16 8 3 2 4 3 4 4 5 1 4 3 2 2 2 2 2 2 3 2 2 3 2 3 6 6 7 8 8 10 10 11 9 12 13 12 11 10 10 11 11
25 24 25 23 21 15 14 10 22 35 34 18 5 3 1 3 3 5 6 4 3 2 3 3 3 2 1 2 2 2 2 2 1 3 2 2 6 5 5 6 8 10 10 11 12 12 12 12 12 10 11 10 12 14
22 26 23 17 19 20 22 12 18 17 7 3 3 5 3 3 2 2 1 2 1 1 5 3 3 2 1 3 2 3 1 2 2 3 3 1 5 5 5 6 7 7 7 9 10 11 11 12 13 17 17 16 17 15
24 23 17 17 21 18 14 12 5 7 5 3 4 3 2 2 0 2 2 2 2 1 2 2 3 2 2 3 2 2 2 2 1 3 2 3 3 5 6 5 5 5 5 7 12 12 13 14 14 15 15 16 16 15
24 16 7 11 8 6 7 14 8 5 4 3 5 3 2 3 4 3 3 2 3 2 2 3 3 3 3 2 4 1 2 3 2 2 2 4 4 4 4 5 8 12 12 12 12 12 13 14 15 14 15 15 15 14
13 4 11 12 9 6 9 8 6 5 4 4 3 2 2 3 1 2 3 3 3 2 2 3 4 2 2 3 2 2 3 2 5 5 3 3 4 4 6 10 11 13 13 13 13 13 15 14 12 11 11 12 13 13
5 18 17 18 15 14 8 6 4 4 5 3 3 3 2 2 1 2 3 2 2 2 2 2 3 4 2 4 2 1 3 5 4 4 3 4 7 11 13 12 12 12 11 11 11 10 10 9 8 8 10 10 10 9
23 24 17 10 6 5 3 4 4 4 3 1 1 1 2 1 2 2 2 4 3 4 3 3 4 2 2 2 5 4 3 3 5 2 2 8 12 13 12 11 9 7 7 10 10 8 7 6 4 6 10 8 7 8
18 13 11 8 5 4 4 3 5 4 3 2 2 2 2 1 0 2 6 5 3 3 5 4 1 0 3 1 2 4 4 5 5 4 2 1 9 10 9 7 9 9 10 8 5 5 6 8 7 8 9 8 9 9
15 11 8 5 5 8 4 2 3 3 3 3 2 2 2 2 3 3 3 3 4 3 2 2 2 5 10 13 15 15 10 11 3 3 3 3 9 13 12 11 8 8 8 9 10 11 9 9 7 7 6 6 7 10
8 6 4 5 4 4 4 4 4 3 3 2 2 2 2 2 2 2 2 4 2 1 2 2 3 5 7 6 11 18 16 17 17 15 16 14 3 6 7 6 10 11 12 12 13 11 8 6 9 6 5 6 9 9
7 4 4 5 5 5 0 1 4 2 4 3 1 3 2 2 2 3 3 2 2 3 7 6 10 15 15 18 18 17 18 19 14 16 16 17 18 17 16 12 13 15 13 11 8 6 7 6 5 6 5 5 8 8
5 5 4 3 4 1 2 2 2 3 3 2 2 3 1 2 2 3 3 1 1 3 4 9 12 7 10 11 4 8 14 20 16 12 17 17 13 12 10 12 11 9 8 10 7 6 4 6 5 5 6 5 6 7
6 6 4 4 3 4 3 3 2 3 2 2 3 1 2 2 2 2 3 3 3 3 4 10 8 5 5 2 8 13 15 16 15 10 8 9 13 15 13 11 9 8 3 10 10 6 6 5 5 3 4 5 6 6
6 4 3 3 1 4 4 3 3 4 3 2 1 1 2 3 3 2 3 4 3 3 3 5 4 5 3 8 4 8 10 15 15 12 7 7 6 11 13 11 6 4 4 2 6 8 6 6 4 3 3 2 2 3
4 2 2 2 2 2 3 2 3 4 3 4 3 2 3 4 2 2 1 2 3 8 13 15 18 13 10 13 13 10 10 14 7 10 9 7 6 4 3 15 9 4 2 2 1 3 8 5 3 2 1 2 4 4
2 3 4 4 4 4 3 3 3 2 0 3 3 3 5 6 4 1 2 13 25 22 22 21 21 23 23 19 17 17 17 16 16 15 14 12 11 10 8 7 6 5 4 2 2 2 1 3 4 2 1 3 2 2
2 1 3 5 4 4 4 2 1 1 2 1 3 2 1 2 2 5 11 22 27 28 21 22 23 24 22 19 15 14 15 14 14 4 2 2 3 3 5 4 3 2 2 2 3 5 6 4 2 3 2 2 2 2
1 2 4 4 4 3 2 1 1 2 2 3 3 4 3 4 12 20 23 22 21 19 21 24 25 23 19 20 16 11 7 5 8 7 5 5 7 8 6 4 4 2 2 1 2 1 1 1 2 3 3 2 3 1
2 3 4 4 3 2 1 4 11 7 3 4 4 4 2 2 10 15 14 18 22 24 24 21 19 18 17 15 14 12 7 5 4 4 5 8 10 8 4 3 3 2 1 1 1 2 2 2 3 3 3 3 3 5
3 3 4 4 1 3 2 3 2 3 3 4 3 3 4 3 3 5 7 16 21 16 17 18 17 14 12 10 9 6 4 11 9 7 7 7 5 4 3 2 1 1 1 2 1 1 3 2 3 5 6 7 7 8
3 3 3 4 3 0 2 3 2 2 3 2 2 2 1 3 3 3 2 6 13 20 18 15 14 13 11 9 9 11 11 10 8 7 5 4 3 3 2 1 2 2 2 2 2 1 2 3 5 5 7 8 9 10
Wind_Direction
267 273 277 277 280 281 284 289 291 288 275 267 258 251 236 222 216 201 203 196 195 224 256 261 272 186 69 72 293 307 15 24 51 155 189 225 195 253 291 248 207 181 179 195 180 220 248 347 328 24 69 80 85 75
268 272 277 279 281 285 288 289 286 278 262 259 261 248 236 222 218 209 200 193 202 191 246 277 252 260 235 201 169 346 333 296 230 190 227 315 314 338 216 267 43 223 186 207 180 187 71 47 73 55 57 80 67 76
268 275 276 278 281 285 289 289 283 256 253 260 270 249 238 227 217 209 196 182 177 199 280 262 254 259 253 233 220 159 231 293 41 348 343 296 277 320 274 248 316 233 328 326 154 121 91 65 51 53 54 44 66 49
269 274 276 276 283 291 292 284 268 258 258 263 268 248 235 231 219 210 186 177 176 133 227 270 252 236 238 214 211 217 206 184 163 121 185 282 245 201 263 14 341 343 2 326 99 90 79 50 50 41 53 43 55 59
272 274 274 280 290 292 287 278 270 268 263 264 261 246 238 231 219 214 197 184 183 165 194 248 288 248 236 213 215 211 226 164 130 73 223 245 271 313 283 113 14 356 349 350 48 314 83 63 42 54 55 55 52 54
273 271 277 287 289 282 283 277 270 271 264 257 248 236 227 218 205 151 79 188 187 149 200 313 287 279 219 199 184 167 174 148 137 173 253 258 261 149 276 81 30 29 21 23 348 64 86 88 51 43 79 75 77 71
271 277 283 288 287 279 276 275 271 268 257 248 239 221 210 197 180 168 171 167 182 171 107 305 291 306 141 106 85 102 128 163 143 192 223 239 275 167 19 58 32 24 31 21 23 24 54 45 61 52 77 66 65 64
277 282 287 291 284 280 276 275 272 261 249 233 216 203 193 175 144 144 137 160 157 112 192 206 262 347 360 94 98 143 135 139 182 200 233 235 33 43 77 61 49 32 39 41 42 45 54 56 59 48 51 57 61 62
281 289 292 289 288 275 256 256 250 236 214 198 181 169 141 136 111 128 126 155 150 162 168 179 161 212 6 110 114 74 125 171 164 216 222 80 36 51 59 66 49 41 40 19 62 46 33 39 66 57 52 44 59 57
288 280 290 283 236 220 159 145 132 120 122 119 115 82 114 123 120 114 125 161 222 193 158 188 170 159 172 135 121 135 180 200 203 213 96 72 81 71 63 62 49 43 42 32 53 36 23 69 85 70 61 54 55 56
272 275 267 182 160 141 133 126 126 120 116 79 83 72 118 124 107 159 131 151 140 170 206 205 163 146 208 152 148 194 170 163 206 179 166 100 103 95 76 62 49 52 53 50 62 51 39 58 78 80 70 66 70 74
238 161 126 123 120 120 122 125 135 131 87 122 112 103 120 169 145 106 131 142 173 197 140 131 143 111 136 179 134 162 175 167 220 101 83 90 93 95 85 70 57 57 60 56 54 57 54 62 70 75 77 73 72 79
134 124 109 99 97 111 115 127 127 118 116 108 73 88 70 342 92 117 169 152 145 137 159 134 109 138 75 59 68 106 112 184 84 51 74 72 114 90 92 85 68 57 60 61 57 59 63 62 61 77 84 84 86 80
152 128 111 96 85 105 127 139 122 111 79 73 73 42 76 358 48 201 86 100 136 138 117 114 97 90 103 62 29 90 261 43 94 71 196 114 108 100 82 85 88 70 64 67 64 69 69 74 70 77 86 95 94 84
152 147 126 105 80 85 98 119 156 89 65 69 56 69 52 244 282 20 73 77 13 26 82 72 55 72 33 71 24 96 107 58 87 186 124 129 111 102 105 104 100 100 92 86 95 91 90 91 83 78 90 96 100 99
156 158 155 155 158 58 99 111 73 70 63 64 41 60 15 59 1 24 25 46 11 9 32 63 102 67 32 77 58 34 71 196 211 145 108 107 95 95 97 100 112 115 113 112 111 112 113 110 108 104 101 97 95 96
148 106 146 124 111 57 43 66 48 53 68 48 24 18 77 90 89 32 13 344 325 61 101 87 69 182 97 64 59 22 153 167 113 111 117 120 128 127 113 110 120 131 136 137 133 129 127 124 120 112 105 105 99 92
125 150 145 136 121 85 55 50 80 73 65 33 72 349 30 53 26 350 327 317 79 80 62 95 90 60 94 126 181 151 103 100 84 100 107 109 115 130 131 134 146 148 149 153 154 156 166 165 153 151 148 140 128 114
145 142 143 131 90 88 78 48 68 89 80 81 54 17 64 40 14 2 3 354 52 54 83 49 67 70 131 117 132 124 119 123 128 135 128 129 133 136 137 138 137 134 133 136 138 131 121 110 121 196 202 190 149 135
132 128 122 117 71 84 76 52 77 85 101 182 59 44 74 111 265 31 29 24 37 48 47 45 60 276 113 116 134 136 133 133 129 117 62 67 123 148 154 157 153 143 129 116 126 134 101 81 75 74 108 126 127 142
120 118 98 88 58 65 92 92 63 106 114 81 138 84 71 23 38 30 28 359 55 40 70 72 83 76 78 79 99 121 122 148 155 148 162 139 144 120 110 94 135 183 163 132 103 94 106 112 124 115 110 117 127 142
121 102 99 54 73 56 68 32 110 129 85 132 117 119 93 53 34 15 62 42 58 1 109 117 105 105 93 86 94 105 114 113 116 116 120 123 96 93 91 112 119 115 127 133 134 121 108 138 151 142 129 139 148 140
104 75 63 60 68 55 220 97 79 114 111 187 89 83 40 53 118 123 73 72 80 39 106 109 106 113 111 114 111 110 115 114 109 115 116 115 117 111 99 96 131 126 127 135 133 138 132 129 141 158 154 137 162 150
69 58 59 75 81 128 28 29 75 88 75 115 87 95 127 153 144 64 85 77 154 130 108 127 128 116 104 90 73 96 116 112 96 121 135 130 122 126 118 114 107 118 149 156 151 133 132 141 134 126 131 161 192 192
75 344 76 18 357 77 72 33 58 74 118 134 93 100 220 112 90 86 149 156 163 144 149 147 141 125 127 123 94 75 161 140 113 89 91 158 144 138 125 116 101 82 97 180 165 163 165 159 166 143 119 145 139 145
72 302 77 172 283 109 167 117 153 151 109 80 180 189 66 86 73 189 179 167 162 163 173 164 150 133 122 138 128 103 106 148 137 105 84 104 133 178 166 149 133 86 66 115 185 199 181 177 182 172 152 178 170 203
79 315 335 20 311 74 62 54 73 94 107 149 183 133 85 87 201 242 118 143 132 143 176 182 154 142 135 122 122 124 137 160 139 125 116 96 85 94 170 180 155 149 92 329 124 161 192 181 187 178 121 199 237 235
90 39 94 320 56 17 84 46 53 58 39 350 75 58 124 165 190 174 107 118 125 122 120 131 145 147 142 137 134 129 123 127 122 119 109 93 77 69 81 119 120 109 100 84 44 35 168 158 150 170 167 142 152 227
49 357 76 44 48 41 37 45 54 2 310 74 107 119 158 46 5 110 113 123 130 126 108 108 115 122 119 121 126 132 141 149 142 116 144 184 170 152 128 110 95 121 109 83 101 67 46 50 66 54 18 291 305 337
314 80 87 61 66 29 279 90 223 278 354 115 103 104 55 36 69 119 126 129 124 126 135 139 142 141 135 131 121 118 125 148 209 211 165 183 194 163 171 173 170 129 99 109 136 168 254 300 324 338 348 289 298 313
110 77 73 67 85 8 160 88 62 50 38 44 30 83 93 110 64 74 111 128 131 134 136 138 142 149 149 152 149 137 119 124 136 135 134 144 155 164 172 190 213 218 233 277 296 346 359 5 12 24 13 20 0 336
47 104 122 106 153 258 20 79 73 81 19 43 1 35 23 55 55 10 48 148 141 140 150 154 152 153 169 174 183 202 228 160 159 153 151 157 161 167 168 166 174 280 275 191 187 24 360 15 354 341 333 328 326 328
59 50 62 89 75 181 261 103 59 96 68 111 219 190 83 120 152 225 68 150 164 156 155 151 149 147 148 150 146 138 142 151 154 160 165 167 169 174 185 247 298 316 281 242 239 289 316 317 315 318 318 316 319 321